Date String (YYYY-MM-DD hh:mm:ss) UTC,Instrument flags,absolute air pressure of the measurement (hPa),sample flow rate (lpm),inlet stack bypass flow (lpm),air temperature of the measurement (°C),ambient temperature measured by the external sensor (°C),aerosol sample conditioner tube jacket temperature (°C),OPC LED temperature (°C),internal box temperature (°C),relative humidity of the measurement (%),span deviation,mass concentration of particles derived from Lorenz-Mie calculation of OPC scattering (μg/m³),mass concentration of particles derived from Lorenz-Mie calculation of OPC scattering (μg/m³),mass concentration of particles derived from Lorenz-Mie calculation of OPC scattering (μg/m³)
DateTimeUTC,F1_M11,P_M11,Q1_M11,Q2_M11,T1_M11,T2_M11,T3_M11,T4_M11,T5_M11,U1_M11,ZSPAN_M11,X0_M11,X2_M11,X1_M11
2024-03-29 16:00:00,SystemResetWarning,0822.9,5.00,000.00,018.3,017.7,000.0,026.8,020.0,26.7,0000.0,0008.35,0003.34,0002.48
2024-03-29 16:01:00,SystemResetWarning,0822.9,5.01,000.00,018.3,017.7,000.0,026.8,020.0,26.8,0000.0,0008.40,0003.30,0002.42
2024-03-29 16:02:00,SystemResetWarning,0822.9,5.01,000.00,018.3,017.7,000.0,026.8,020.0,27.0,0000.0,0008.36,0003.25,0002.37
2024-03-29 16:03:00,SystemResetWarning,0823.0,5.01,000.00,018.3,017.7,000.0,026.8,020.0,26.9,0000.0,0008.57,0003.18,0002.30
2024-03-29 16:04:00,SystemResetWarning,0823.0,5.00,000.00,018.3,017.6,000.0,026.8,020.0,27.0,0000.0,0008.34,0003.13,0002.23
2024-03-29 16:05:00,SystemResetWarning,0823.0,4.99,000.00,018.3,017.6,000.0,026.8,020.0,27.0,0000.0,0007.75,0003.07,0002.18
2024-03-29 16:06:00,SystemResetWarning,0823.0,5.00,000.00,018.3,017.6,000.0,026.8,020.0,26.9,0000.0,0007.73,0003.07,0002.17
2024-03-29 16:07:00,SystemResetWarning,0823.1,4.99,000.00,018.3,017.6,000.0,026.8,020.0,27.1,0000.0,0007.75,0003.09,0002.15
2024-03-29 16:08:00,SystemResetWarning,0823.1,4.99,000.00,018.3,017.6,000.0,026.8,020.0,27.2,0000.0,0007.70,0003.06,0002.13
2024-03-29 16:09:00,SystemResetWarning,0823.1,5.00,000.00,018.3,017.6,000.0,026.8,020.0,27.3,0000.0,0007.57,0002.98,0002.09
2024-03-29 16:10:00,SystemResetWarning,0823.1,5.01,000.00,018.3,017.6,000.0,026.8,020.0,28.0,0000.0,0007.28,0002.91,0002.04
2024-03-29 16:11:00,SystemResetWarning,0823.2,5.00,000.00,018.3,017.7,000.0,026.8,020.0,28.7,0000.0,0005.82,0002.87,0001.99
2024-03-29 16:12:00,SystemResetWarning,0823.2,5.00,000.00,018.3,017.7,000.0,026.8,020.0,28.5,0000.0,0005.49,0002.80,0001.96
2024-03-29 16:13:00,SystemResetWarning,0823.2,4.99,000.00,018.3,017.7,000.0,026.8,020.0,28.9,0000.0,0005.25,0002.74,0001.96
2024-03-29 16:14:00,SystemResetWarning,0823.2,4.99,000.00,018.3,017.7,000.0,026.8,020.0,29.4,0000.0,0005.13,0002.79,0001.98
2024-03-29 16:15:00,SystemResetWarning,0823.1,5.00,000.00,018.3,017.7,000.0,026.8,020.0,29.7,0000.0,0005.31,0002.90,0002.00
2024-03-29 16:16:00,SystemResetWarning,0823.1,5.00,000.00,018.3,017.7,000.0,026.8,020.1,30.6,0000.0,0007.01,0002.92,0002.01
2024-03-29 16:17:00,SystemResetWarning,0823.2,5.01,000.00,018.3,017.7,000.0,026.8,020.1,30.2,0000.0,0007.00,0002.91,0002.01
2024-03-29 16:18:00,SystemResetWarning,0823.1,5.01,000.00,018.3,017.7,000.0,026.8,020.1,30.4,0000.0,0006.74,0002.82,0001.99
2024-03-29 16:19:00,SystemResetWarning,0823.1,5.00,000.00,018.3,017.8,000.0,026.8,020.1,30.7,0000.0,0006.61,0002.77,0001.98
2024-03-29 16:20:00,SystemResetWarning,0823.1,4.99,000.00,018.3,017.8,000.0,026.8,020.1,31.7,0000.0,0006.64,0002.79,0001.99
2024-03-29 16:21:00,SystemResetWarning,0823.1,4.99,000.00,018.3,017.8,000.0,026.8,020.1,32.0,0000.0,0006.65,0002.81,0002.01
2024-03-29 16:22:00,SystemResetWarning,0823.1,5.00,000.00,018.3,017.8,000.0,026.8,020.1,32.0,0000.0,0006.75,0002.86,0002.04
2024-03-29 16:23:00,SystemResetWarning,0823.1,5.00,000.00,018.4,017.8,000.0,026.8,020.1,31.1,0000.0,0007.11,0002.98,0002.07
2024-03-29 16:24:00,SystemResetWarning,0823.2,5.01,000.00,018.4,017.8,000.0,026.8,020.1,32.1,0000.0,0007.32,0003.07,0002.08
2024-03-29 16:25:00,SystemResetWarning,0823.1,5.00,000.00,018.4,017.9,000.0,026.8,020.2,32.4,0000.0,0007.29,0003.11,0002.10
2024-03-29 16:26:00,SystemResetWarning,0823.1,5.00,000.00,018.4,017.9,000.0,026.9,020.2,30.3,0000.0,0007.20,0003.13,0002.13
2024-03-29 16:27:00,SystemResetWarning,0823.1,5.00,000.00,018.4,017.9,000.0,026.9,020.2,29.9,0000.0,0005.99,0003.12,0002.14
2024-03-29 16:28:00,SystemResetWarning,0823.2,5.00,000.00,018.4,017.9,000.0,026.9,020.2,29.3,0000.0,0006.27,0003.11,0002.14
2024-03-29 16:29:00,SystemResetWarning,0823.1,5.00,000.00,018.4,018.0,000.0,026.9,020.2,29.0,0000.0,0006.47,0003.13,0002.15
2024-03-29 16:30:00,SystemResetWarning,0823.1,5.00,000.00,018.4,018.0,000.0,026.9,020.2,28.4,0000.0,0006.69,0003.16,0002.18
2024-03-29 16:31:00,SystemResetWarning,0823.1,4.99,000.00,018.4,018.0,000.0,026.9,020.2,28.3,0000.0,0007.16,0003.18,0002.18
2024-03-29 16:32:00,SystemResetWarning,0823.1,4.99,000.00,018.5,018.0,000.0,026.9,020.2,28.6,0000.0,0007.25,0003.16,0002.18
2024-03-29 16:33:00,SystemResetWarning,0823.0,5.00,000.00,018.5,018.0,000.0,026.9,020.3,29.0,0000.0,0007.19,0003.14,0002.19
2024-03-29 16:34:00,SystemResetWarning,0823.1,5.01,000.00,018.5,018.1,000.0,026.9,020.3,29.1,0000.0,0007.07,0003.12,0002.19
2024-03-29 16:35:00,SystemResetWarning,0823.1,4.99,000.00,018.5,018.1,000.0,026.9,020.3,28.9,0000.0,0006.80,0003.05,0002.18
2024-03-29 16:36:00,SystemResetWarning,0823.1,4.99,000.00,018.5,018.1,000.0,026.9,020.3,29.9,0000.0,0006.64,0002.95,0002.17
2024-03-29 16:37:00,SystemResetWarning,0823.1,5.00,000.00,018.5,018.1,000.0,026.9,020.3,30.6,0000.0,0006.37,0002.87,0002.15
2024-03-29 16:38:00,SystemResetWarning,0823.1,5.01,000.00,018.5,018.1,000.0,026.9,020.3,30.3,0000.0,0006.56,0002.85,0002.16
2024-03-29 16:39:00,SystemResetWarning,0823.0,5.00,000.00,018.6,018.1,000.0,027.0,020.3,29.7,0000.0,0006.47,0002.87,0002.18
2024-03-29 16:40:00,SystemResetWarning,0823.1,5.00,000.00,018.6,018.1,000.0,027.0,020.3,29.6,0000.0,0006.39,0002.91,0002.20
2024-03-29 16:41:00,SystemResetWarning,0823.0,4.99,000.00,018.6,018.1,000.0,027.0,020.4,29.5,0000.0,0006.34,0002.93,0002.20
2024-03-29 16:42:00,SystemResetWarning,0823.0,5.00,000.00,018.6,018.1,000.0,027.0,020.3,30.9,0000.0,0006.13,0002.96,0002.23
2024-03-29 16:43:00,SystemResetWarning,0823.0,5.01,000.00,018.6,018.2,000.0,027.0,020.4,30.8,0000.0,0005.96,0003.03,0002.26
2024-03-29 16:44:00,SystemResetWarning,0823.0,5.00,000.00,018.6,018.2,000.0,027.0,020.4,30.9,0000.0,0006.26,0003.09,0002.29
2024-03-29 16:45:00,SystemResetWarning,0823.0,4.99,000.00,018.6,018.2,000.0,027.0,020.4,30.1,0000.0,0006.37,0003.12,0002.31
2024-03-29 16:46:00,SystemResetWarning,0823.0,5.02,000.00,018.6,018.2,000.0,027.0,020.4,29.8,0000.0,0006.46,0003.15,0002.34
2024-03-29 16:47:00,SystemResetWarning,0823.0,5.02,000.00,018.6,018.2,000.0,027.0,020.4,30.2,0000.0,0006.66,0003.18,0002.37
2024-03-29 16:48:00,SystemResetWarning,0823.1,4.99,000.00,018.7,018.2,000.0,027.0,020.4,29.9,0000.0,0006.96,0003.25,0002.41
2024-03-29 16:49:00,SystemResetWarning,0823.1,4.99,000.00,018.7,018.2,000.0,027.0,020.4,30.0,0000.0,0007.10,0003.29,0002.43
2024-03-29 16:50:00,SystemResetWarning,0823.1,4.99,000.00,018.7,018.2,000.0,027.1,020.4,30.1,0000.0,0006.83,0003.32,0002.47
2024-03-29 16:51:00,SystemResetWarning,0823.2,5.01,000.00,018.7,018.2,000.0,027.1,020.4,30.6,0000.0,0007.47,0003.33,0002.48
2024-03-29 16:52:00,SystemResetWarning,0823.2,5.01,000.00,018.7,018.2,000.0,027.1,020.4,29.9,0000.0,0007.72,0003.37,0002.52
2024-03-29 16:53:00,SystemResetWarning,0823.1,5.01,000.00,018.7,018.3,000.0,027.1,020.5,30.1,0000.0,0007.74,0003.37,0002.53
2024-03-29 16:54:00,SystemResetWarning,0823.1,5.00,000.00,018.7,018.3,000.0,027.1,020.5,30.0,0000.0,0007.67,0003.36,0002.54
2024-03-29 16:55:00,SystemResetWarning,0823.1,5.00,000.00,018.7,018.3,000.0,027.1,020.5,29.9,0000.0,0007.61,0003.37,0002.56
2024-03-29 16:56:00,SystemResetWarning,0823.1,5.00,000.00,018.7,018.3,000.0,027.1,020.5,29.8,0000.0,0007.55,0003.37,0002.58
2024-03-29 16:57:00,SystemResetWarning,0823.1,5.00,000.00,018.8,018.3,000.0,027.1,020.5,29.7,0000.0,0007.49,0003.36,0002.61
2024-03-29 16:58:00,SystemResetWarning,0823.2,5.00,000.00,018.8,018.3,000.0,027.1,020.5,29.7,0000.0,0007.71,0003.40,0002.63
2024-03-29 16:59:00,SystemResetWarning,0823.1,4.99,000.00,018.8,018.3,000.0,027.1,020.5,29.3,0000.0,0007.71,0003.39,0002.65
